contact:dominique.lefevre@mio.osupytheas.fr, maurice.libes@osupytheas.fr, didier.mallarino@osupytheas.fr
Project:EMSO http://www.emso-fr.org/EMSO-France
Depth: 2436.0 m
Title:EMSO Ligure Ouest : Data MII capteur CSTAR
DateTime,Latitude,Longitude,Instrument_Serial,Reference_Counts,Signal_Counts,Corrected_Signal_raw_counts,Calculated_Beam_c_inverse_meters,Internal_thermistor_counts
DateTime,Latitude,Longitude,Instrument_Serial,Reference_Counts,Signal_Counts,Corrected_Signal_raw_counts,Calculated_Beam_c_inverse_meters,Internal_thermistor_counts
2023-10-14T00:00:15,42.805,6.029,CST-1368DR,4137,4443,11385,01.264,552
2023-10-14T00:03:17,42.805,6.029,CST-1368DR,4137,4441,11379,01.266,553
2023-10-14T00:06:18,42.805,6.029,CST-1368DR,4137,4441,11379,01.266,552
2023-10-14T00:09:20,42.805,6.029,CST-1368DR,4137,4442,11381,01.265,553
2023-10-14T00:12:22,42.805,6.029,CST-1368DR,4137,4442,11380,01.266,552
2023-10-14T00:15:23,42.805,6.029,CST-1368DR,4137,4442,11382,01.265,553
2023-10-14T00:18:25,42.805,6.029,CST-1368DR,4137,4443,11384,01.264,553
2023-10-14T00:21:26,42.805,6.029,CST-1368DR,4137,4442,11382,01.265,553
2023-10-14T00:24:28,42.805,6.029,CST-1368DR,4137,4444,11386,01.264,553
2023-10-14T00:27:30,42.805,6.029,CST-1368DR,4137,4443,11384,01.264,552
2023-10-14T00:30:31,42.805,6.029,CST-1368DR,4137,4443,11384,01.264,553
2023-10-14T00:33:33,42.805,6.029,CST-1368DR,4137,4440,11376,01.267,553
2023-10-14T00:36:34,42.805,6.029,CST-1368DR,4137,4442,11382,01.265,552
2023-10-14T00:39:36,42.805,6.029,CST-1368DR,4137,4443,11384,01.264,553
2023-10-14T00:42:37,42.805,6.029,CST-1368DR,4137,4442,11380,01.266,553
2023-10-14T00:45:39,42.805,6.029,CST-1368DR,4137,4443,11384,01.264,553
2023-10-14T00:48:41,42.805,6.029,CST-1368DR,4137,4443,11384,01.264,553
2023-10-14T00:51:42,42.805,6.029,CST-1368DR,4137,4443,11384,01.264,553
2023-10-14T00:54:44,42.805,6.029,CST-1368DR,4137,4440,11375,01.268,553
2023-10-14T00:57:45,42.805,6.029,CST-1368DR,4137,4441,11380,01.266,553
2023-10-14T01:00:47,42.805,6.029,CST-1368DR,4137,4444,11387,01.263,553
2023-10-14T01:03:48,42.805,6.029,CST-1368DR,4137,4445,11389,01.263,553
2023-10-14T01:06:50,42.805,6.029,CST-1368DR,4137,4445,11389,01.263,553
2023-10-14T01:09:52,42.805,6.029,CST-1368DR,4137,4445,11389,01.263,553
2023-10-14T01:12:53,42.805,6.029,CST-1368DR,4137,4446,11391,01.262,553
2023-10-14T01:15:55,42.805,6.029,CST-1368DR,4137,4447,11394,01.261,553
2023-10-14T01:18:56,42.805,6.029,CST-1368DR,4137,4445,11388,01.263,553
2023-10-14T01:21:58,42.805,6.029,CST-1368DR,4137,4445,11389,01.263,553
2023-10-14T01:24:59,42.805,6.029,CST-1368DR,4137,4445,11389,01.263,553
2023-10-14T01:28:01,42.805,6.029,CST-1368DR,4137,4445,11389,01.263,552
2023-10-14T01:31:03,42.805,6.029,CST-1368DR,4137,4445,11390,01.262,553
2023-10-14T01:34:04,42.805,6.029,CST-1368DR,4137,4446,11391,01.262,552
2023-10-14T01:37:06,42.805,6.029,CST-1368DR,4137,4445,11389,01.263,553
2023-10-14T01:40:07,42.805,6.029,CST-1368DR,4137,4445,11390,01.262,553
2023-10-14T01:43:09,42.805,6.029,CST-1368DR,4137,4444,11386,01.264,553
2023-10-14T01:46:11,42.805,6.029,CST-1368DR,4137,4445,11389,01.263,553
2023-10-14T01:49:12,42.805,6.029,CST-1368DR,4137,4444,11387,01.263,553
2023-10-14T01:52:14,42.805,6.029,CST-1368DR,4137,4445,11389,01.263,553
2023-10-14T01:55:15,42.805,6.029,CST-1368DR,4137,4445,11390,01.262,553
2023-10-14T01:58:17,42.805,6.029,CST-1368DR,4137,4445,11390,01.262,553
2023-10-14T02:01:18,42.805,6.029,CST-1368DR,4137,4445,11389,01.263,553
2023-10-14T02:04:20,42.805,6.029,CST-1368DR,4137,4445,11389,01.263,553
2023-10-14T02:07:22,42.805,6.029,CST-1368DR,4137,4445,11390,01.262,553
2023-10-14T02:10:23,42.805,6.029,CST-1368DR,4137,4446,11393,01.261,553
2023-10-14T02:13:25,42.805,6.029,CST-1368DR,4137,4445,11389,01.263,553
2023-10-14T02:16:26,42.805,6.029,CST-1368DR,4137,4446,11393,01.261,552
2023-10-14T02:19:28,42.805,6.029,CST-1368DR,4137,4445,11388,01.263,553
2023-10-14T02:22:29,42.805,6.029,CST-1368DR,4137,4444,11386,01.264,552
2023-10-14T02:25:31,42.805,6.029,CST-1368DR,4137,4444,11387,01.263,553
2023-10-14T02:28:33,42.805,6.029,CST-1368DR,4137,4444,11387,01.263,552
2023-10-14T02:31:34,42.805,6.029,CST-1368DR,4137,4444,11387,01.263,553
2023-10-14T02:34:36,42.805,6.029,CST-1368DR,4137,4446,11393,01.261,553
2023-10-14T02:37:37,42.805,6.029,CST-1368DR,4137,4443,11385,01.264,553
2023-10-14T02:40:39,42.805,6.029,CST-1368DR,4137,4432,11355,01.275,553
2023-10-14T02:43:40,42.805,6.029,CST-1368DR,4137,4429,11348,01.277,552
2023-10-14T02:46:42,42.805,6.029,CST-1368DR,4137,4432,11355,01.275,553
2023-10-14T02:49:44,42.805,6.029,CST-1368DR,4137,4433,11358,01.273,553
2023-10-14T02:52:45,42.805,6.029,CST-1368DR,4137,4433,11359,01.273,552
2023-10-14T02:55:47,42.805,6.029,CST-1368DR,4137,4429,11348,01.277,553
2023-10-14T02:58:48,42.805,6.029,CST-1368DR,4137,4429,11348,01.277,553
2023-10-14T03:01:50,42.805,6.029,CST-1368DR,4137,4432,11356,01.274,553
2023-10-14T03:04:52,42.805,6.029,CST-1368DR,4137,4426,11341,01.279,552
2023-10-14T03:07:53,42.805,6.029,CST-1368DR,4137,4430,11352,01.276,553
2023-10-14T03:10:55,42.805,6.029,CST-1368DR,4137,4428,11345,01.278,553
2023-10-14T03:13:56,42.805,6.029,CST-1368DR,4137,4430,11352,01.276,553
2023-10-14T03:16:58,42.805,6.029,CST-1368DR,4137,4428,11346,01.278,553
2023-10-14T03:19:59,42.805,6.029,CST-1368DR,4137,4428,11345,01.278,552
2023-10-14T03:23:01,42.805,6.029,CST-1368DR,4137,4431,11352,01.276,553
2023-10-14T03:26:03,42.805,6.029,CST-1368DR,4137,4429,11348,01.277,553
2023-10-14T03:29:04,42.805,6.029,CST-1368DR,4137,4429,11349,01.277,553
2023-10-14T03:32:06,42.805,6.029,CST-1368DR,4137,4430,11350,01.276,553
2023-10-14T03:35:07,42.805,6.029,CST-1368DR,4137,4432,11357,01.274,553
2023-10-14T03:38:09,42.805,6.029,CST-1368DR,4137,4432,11355,01.275,553
2023-10-14T03:41:10,42.805,6.029,CST-1368DR,4137,4427,11343,01.279,553
2023-10-14T03:44:12,42.805,6.029,CST-1368DR,4137,4428,11347,01.277,552
2023-10-14T03:47:14,42.805,6.029,CST-1368DR,4137,4428,11345,01.278,553
2023-10-14T03:50:15,42.805,6.029,CST-1368DR,4137,4432,11355,01.275,553
2023-10-14T03:53:17,42.805,6.029,CST-1368DR,4137,4434,11361,01.272,553
2023-10-14T03:56:18,42.805,6.029,CST-1368DR,4137,4431,11354,01.275,553
2023-10-14T03:59:20,42.805,6.029,CST-1368DR,4137,4430,11350,01.276,552
2023-10-14T04:02:22,42.805,6.029,CST-1368DR,4137,4429,11348,01.277,553
2023-10-14T04:05:23,42.805,6.029,CST-1368DR,4137,4429,11349,01.277,553
2023-10-14T04:08:25,42.805,6.029,CST-1368DR,4137,4432,11356,01.274,553
2023-10-14T04:11:26,42.805,6.029,CST-1368DR,4137,4430,11350,01.276,553
2023-10-14T04:14:28,42.805,6.029,CST-1368DR,4137,4432,11356,01.274,553
2023-10-14T04:17:29,42.805,6.029,CST-1368DR,4137,4432,11357,01.274,553
2023-10-14T04:20:31,42.805,6.029,CST-1368DR,4137,4428,11347,01.277,553
2023-10-14T04:23:33,42.805,6.029,CST-1368DR,4137,4431,11352,01.276,553
2023-10-14T04:26:34,42.805,6.029,CST-1368DR,4137,4429,11347,01.277,553
2023-10-14T04:29:36,42.805,6.029,CST-1368DR,4137,4432,11355,01.275,553
2023-10-14T04:32:37,42.805,6.029,CST-1368DR,4137,4431,11354,01.275,553
2023-10-14T04:35:39,42.805,6.029,CST-1368DR,4137,4435,11363,01.272,553
2023-10-14T04:38:40,42.805,6.029,CST-1368DR,4137,4429,11347,01.277,553
2023-10-14T04:41:42,42.805,6.029,CST-1368DR,4137,4432,11356,01.274,553
2023-10-14T04:44:44,42.805,6.029,CST-1368DR,4137,4438,11371,01.269,553
2023-10-14T04:47:45,42.805,6.029,CST-1368DR,4137,4428,11347,01.277,553
2023-10-14T04:50:47,42.805,6.029,CST-1368DR,4137,4428,11347,01.277,553
2023-10-14T04:53:48,42.805,6.029,CST-1368DR,4137,4429,11347,01.277,553
2023-10-14T04:56:50,42.805,6.029,CST-1368DR,4137,4429,11349,01.277,553
2023-10-14T04:59:52,42.805,6.029,CST-1368DR,4137,4432,11357,01.274,552
2023-10-14T05:02:53,42.805,6.029,CST-1368DR,4137,4431,11352,01.276,553
2023-10-14T05:05:55,42.805,6.029,CST-1368DR,4137,4428,11345,01.278,553
2023-10-14T05:08:56,42.805,6.029,CST-1368DR,4137,4430,11350,01.276,553
2023-10-14T05:11:58,42.805,6.029,CST-1368DR,4137,4430,11351,01.276,552
2023-10-14T05:14:59,42.805,6.029,CST-1368DR,4137,4430,11350,01.276,553
2023-10-14T05:18:01,42.805,6.029,CST-1368DR,4137,4429,11349,01.277,553
2023-10-14T05:21:03,42.805,6.029,CST-1368DR,4137,4432,11356,01.274,553
2023-10-14T05:24:04,42.805,6.029,CST-1368DR,4137,4435,11363,01.272,553
2023-10-14T05:27:06,42.805,6.029,CST-1368DR,4137,4428,11345,01.278,553
2023-10-14T05:30:07,42.805,6.029,CST-1368DR,4137,4431,11352,01.276,553
2023-10-14T05:33:09,42.805,6.029,CST-1368DR,4137,4428,11345,01.278,553
2023-10-14T05:36:11,42.805,6.029,CST-1368DR,4137,4429,11347,01.277,553
2023-10-14T05:39:12,42.805,6.029,CST-1368DR,4137,4429,11347,01.277,553
2023-10-14T05:42:14,42.805,6.029,CST-1368DR,4137,4430,11350,01.276,553
2023-10-14T05:45:15,42.805,6.029,CST-1368DR,4137,4428,11345,01.278,553
2023-10-14T05:48:17,42.805,6.029,CST-1368DR,4137,4429,11348,01.277,553
2023-10-14T05:51:18,42.805,6.029,CST-1368DR,4137,4427,11343,01.279,553
2023-10-14T05:54:20,42.805,6.029,CST-1368DR,4137,4431,11352,01.276,553
2023-10-14T05:57:22,42.805,6.029,CST-1368DR,4137,4431,11354,01.275,553
2023-10-14T06:00:23,42.805,6.029,CST-1368DR,4137,4431,11354,01.275,553
2023-10-14T06:03:25,42.805,6.029,CST-1368DR,4137,4433,11357,01.274,552
2023-10-14T06:06:26,42.805,6.029,CST-1368DR,4137,4425,11338,01.281,553
2023-10-14T06:09:28,42.805,6.029,CST-1368DR,4137,4428,11346,01.278,553
2023-10-14T06:12:29,42.805,6.029,CST-1368DR,4137,4430,11350,01.276,552
2023-10-14T06:15:31,42.805,6.029,CST-1368DR,4137,4431,11354,01.275,553
2023-10-14T06:18:33,42.805,6.029,CST-1368DR,4137,4430,11350,01.276,553
2023-10-14T06:21:34,42.805,6.029,CST-1368DR,4137,4429,11348,01.277,553
2023-10-14T06:24:36,42.805,6.029,CST-1368DR,4137,4431,11354,01.275,553
2023-10-14T06:27:37,42.805,6.029,CST-1368DR,4137,4431,11352,01.276,553
2023-10-14T06:30:39,42.805,6.029,CST-1368DR,4137,4428,11346,01.278,553
2023-10-14T06:33:40,42.805,6.029,CST-1368DR,4137,4447,11395,01.260,553
2023-10-14T06:36:42,42.805,6.029,CST-1368DR,4137,4448,11396,01.260,553
2023-10-14T06:39:44,42.805,6.029,CST-1368DR,4137,4447,11395,01.260,553
2023-10-14T06:42:45,42.805,6.029,CST-1368DR,4137,4446,11392,01.262,553
2023-10-14T06:45:47,42.805,6.029,CST-1368DR,4137,4447,11393,01.261,553
2023-10-14T06:48:48,42.805,6.029,CST-1368DR,4137,4446,11392,01.262,553
2023-10-14T06:51:50,42.805,6.029,CST-1368DR,4137,4447,11395,01.260,552
2023-10-14T06:54:52,42.805,6.029,CST-1368DR,4137,4446,11392,01.262,553
2023-10-14T06:57:53,42.805,6.029,CST-1368DR,4137,4447,11395,01.260,553
2023-10-14T07:00:55,42.805,6.029,CST-1368DR,4137,4448,11396,01.260,553
2023-10-14T07:03:56,42.805,6.029,CST-1368DR,4137,4447,11395,01.260,553
2023-10-14T07:06:58,42.805,6.029,CST-1368DR,4137,4446,11393,01.261,553
2023-10-14T07:09:59,42.805,6.029,CST-1368DR,4137,4447,11395,01.260,553
2023-10-14T07:13:01,42.805,6.029,CST-1368DR,4137,4449,11399,01.259,553
2023-10-14T07:16:03,42.805,6.029,CST-1368DR,4137,4447,11395,01.260,553
2023-10-14T07:19:04,42.805,6.029,CST-1368DR,4137,4448,11398,01.259,553
2023-10-14T07:22:06,42.805,6.029,CST-1368DR,4137,4449,11398,01.259,552
2023-10-14T07:25:07,42.805,6.029,CST-1368DR,4137,4449,11398,01.259,553
2023-10-14T07:28:09,42.805,6.029,CST-1368DR,4137,4448,11396,01.260,553
2023-10-14T07:31:10,42.805,6.029,CST-1368DR,4137,4448,11398,01.259,553
2023-10-14T07:34:12,42.805,6.029,CST-1368DR,4137,4449,11399,01.259,553
2023-10-14T07:37:14,42.805,6.029,CST-1368DR,4137,4448,11398,01.259,553
2023-10-14T07:40:15,42.805,6.029,CST-1368DR,4137,4446,11391,01.262,553
2023-10-14T07:43:17,42.805,6.029,CST-1368DR,4137,4448,11398,01.259,553
2023-10-14T07:46:18,42.805,6.029,CST-1368DR,4137,4447,11395,01.260,553
2023-10-14T07:49:20,42.805,6.029,CST-1368DR,4137,4448,11397,01.260,552
2023-10-14T07:52:22,42.805,6.029,CST-1368DR,4137,4447,11395,01.260,553
2023-10-14T07:55:23,42.805,6.029,CST-1368DR,4137,4444,11386,01.264,553
2023-10-14T07:58:25,42.805,6.029,CST-1368DR,4137,4447,11394,01.261,553
2023-10-14T08:01:26,42.805,6.029,CST-1368DR,4137,4447,11393,01.261,553
2023-10-14T08:04:28,42.805,6.029,CST-1368DR,4137,4447,11395,01.260,553
2023-10-14T08:07:29,42.805,6.029,CST-1368DR,4137,4449,11398,01.259,553
2023-10-14T08:10:31,42.805,6.029,CST-1368DR,4137,4448,11398,01.259,553
2023-10-14T08:13:33,42.805,6.029,CST-1368DR,4137,4447,11395,01.260,552
2023-10-14T08:16:34,42.805,6.029,CST-1368DR,4137,4447,11395,01.260,553
2023-10-14T08:19:36,42.805,6.029,CST-1368DR,4137,4449,11398,01.259,553
2023-10-14T08:22:37,42.805,6.029,CST-1368DR,4137,4449,11400,01.259,553
2023-10-14T08:25:39,42.805,6.029,CST-1368DR,4137,4449,11398,01.259,553
2023-10-14T08:28:40,42.805,6.029,CST-1368DR,4137,4448,11396,01.260,553
2023-10-14T08:31:42,42.805,6.029,CST-1368DR,4137,4448,11396,01.260,553
2023-10-14T08:34:44,42.805,6.029,CST-1368DR,4137,4448,11398,01.259,553
2023-10-14T08:37:45,42.805,6.029,CST-1368DR,4137,4449,11399,01.259,553
2023-10-14T08:40:47,42.805,6.029,CST-1368DR,4137,4449,11398,01.259,553
2023-10-14T08:43:48,42.805,6.029,CST-1368DR,4137,4450,11402,01.258,553
2023-10-14T08:46:50,42.805,6.029,CST-1368DR,4137,4449,11400,01.259,553
2023-10-14T08:49:52,42.805,6.029,CST-1368DR,4137,4449,11400,01.259,553
2023-10-14T08:52:53,42.805,6.029,CST-1368DR,4137,4449,11400,01.259,553
2023-10-14T08:55:55,42.805,6.029,CST-1368DR,4137,4449,11400,01.259,553
2023-10-14T08:58:56,42.805,6.029,CST-1368DR,4137,4449,11398,01.259,553
2023-10-14T09:01:58,42.805,6.029,CST-1368DR,4137,4449,11398,01.259,553
2023-10-14T09:04:59,42.805,6.029,CST-1368DR,4137,4448,11398,01.259,553
2023-10-14T09:08:01,42.805,6.029,CST-1368DR,4137,4448,11396,01.260,552
2023-10-14T09:11:03,42.805,6.029,CST-1368DR,4137,4448,11397,01.260,552
2023-10-14T09:14:04,42.805,6.029,CST-1368DR,4137,4447,11395,01.260,553
2023-10-14T09:17:06,42.805,6.029,CST-1368DR,4137,4447,11395,01.260,553
2023-10-14T09:20:07,42.805,6.029,CST-1368DR,4137,4447,11395,01.260,553
2023-10-14T09:23:09,42.805,6.029,CST-1368DR,4137,4448,11398,01.259,553
2023-10-14T09:26:10,42.805,6.029,CST-1368DR,4137,4449,11398,01.259,553
2023-10-14T09:29:12,42.805,6.029,CST-1368DR,4137,4448,11396,01.260,553
2023-10-14T09:32:14,42.805,6.029,CST-1368DR,4137,4447,11395,01.260,552
2023-10-14T09:35:15,42.805,6.029,CST-1368DR,4137,4449,11398,01.259,553
2023-10-14T09:38:17,42.805,6.029,CST-1368DR,4137,4448,11397,01.260,553
2023-10-14T09:41:18,42.805,6.029,CST-1368DR,4137,4447,11395,01.260,553
2023-10-14T09:44:20,42.805,6.029,CST-1368DR,4137,4448,11396,01.260,553
2023-10-14T09:47:22,42.805,6.029,CST-1368DR,4137,4446,11391,01.262,553
2023-10-14T09:50:23,42.805,6.029,CST-1368DR,4137,4447,11394,01.261,553
2023-10-14T09:53:25,42.805,6.029,CST-1368DR,4137,4448,11397,01.260,553
2023-10-14T09:56:26,42.805,6.029,CST-1368DR,4137,4446,11391,01.262,553
2023-10-14T09:59:28,42.805,6.029,CST-1368DR,4137,4447,11395,01.260,553
2023-10-14T10:02:29,42.805,6.029,CST-1368DR,4137,4449,11398,01.259,553
2023-10-14T10:05:31,42.805,6.029,CST-1368DR,4137,4447,11394,01.261,553
2023-10-14T10:08:33,42.805,6.029,CST-1368DR,4137,4447,11393,01.261,553
2023-10-14T10:11:34,42.805,6.029,CST-1368DR,4137,4447,11394,01.261,553
2023-10-14T10:14:36,42.805,6.029,CST-1368DR,4137,4447,11394,01.261,553
2023-10-14T10:17:37,42.805,6.029,CST-1368DR,4137,4447,11395,01.260,553
2023-10-14T10:20:39,42.805,6.029,CST-1368DR,4137,4447,11393,01.261,552
2023-10-14T10:23:41,42.805,6.029,CST-1368DR,4137,4447,11394,01.261,553
2023-10-14T10:26:42,42.805,6.029,CST-1368DR,4137,4447,11393,01.261,553
2023-10-14T10:29:44,42.805,6.029,CST-1368DR,4137,4448,11396,01.260,553
2023-10-14T10:32:46,42.805,6.029,CST-1368DR,4137,4448,11397,01.260,553
2023-10-14T10:35:47,42.805,6.029,CST-1368DR,4137,4447,11395,01.260,553
2023-10-14T10:38:49,42.805,6.029,CST-1368DR,4137,4447,11395,01.260,553
2023-10-14T10:41:50,42.805,6.029,CST-1368DR,4137,4447,11395,01.260,553
2023-10-14T10:44:52,42.805,6.029,CST-1368DR,4137,4448,11396,01.260,553
2023-10-14T10:47:54,42.805,6.029,CST-1368DR,4137,4447,11394,01.261,553
2023-10-14T10:50:55,42.805,6.029,CST-1368DR,4137,4447,11395,01.260,553
2023-10-14T10:53:57,42.805,6.029,CST-1368DR,4137,4447,11395,01.260,553
2023-10-14T10:56:58,42.805,6.029,CST-1368DR,4137,4447,11395,01.260,553
2023-10-14T11:00:00,42.805,6.029,CST-1368DR,4137,4447,11393,01.261,553
2023-10-14T11:03:01,42.805,6.029,CST-1368DR,4137,4447,11395,01.260,553
2023-10-14T11:06:03,42.805,6.029,CST-1368DR,4137,4447,11395,01.260,552
2023-10-14T11:09:05,42.805,6.029,CST-1368DR,4137,4448,11396,01.260,553
2023-10-14T11:12:06,42.805,6.029,CST-1368DR,4137,4447,11394,01.261,553
2023-10-14T11:15:08,42.805,6.029,CST-1368DR,4137,4445,11389,01.263,553
2023-10-14T11:18:09,42.805,6.029,CST-1368DR,4137,4447,11393,01.261,553
2023-10-14T11:21:11,42.805,6.029,CST-1368DR,4137,4449,11398,01.259,553
2023-10-14T11:24:13,42.805,6.029,CST-1368DR,4137,4445,11389,01.263,553
2023-10-14T11:27:14,42.805,6.029,CST-1368DR,4137,4446,11392,01.262,553
2023-10-14T11:30:16,42.805,6.029,CST-1368DR,4137,4446,11393,01.261,553
2023-10-14T11:33:17,42.805,6.029,CST-1368DR,4137,4447,11395,01.260,553
2023-10-14T11:36:19,42.805,6.029,CST-1368DR,4137,4446,11392,01.262,553
2023-10-14T11:39:20,42.805,6.029,CST-1368DR,4137,4447,11395,01.260,552
2023-10-14T11:42:22,42.805,6.029,CST-1368DR,4137,4448,11397,01.260,553
2023-10-14T11:45:24,42.805,6.029,CST-1368DR,4137,4447,11395,01.260,553
2023-10-14T11:48:25,42.805,6.029,CST-1368DR,4137,4447,11395,01.260,553
2023-10-14T11:51:27,42.805,6.029,CST-1368DR,4137,4446,11391,01.262,553
2023-10-14T11:54:28,42.805,6.029,CST-1368DR,4137,4447,11393,01.261,553
2023-10-14T11:57:30,42.805,6.029,CST-1368DR,4137,4446,11393,01.261,553
2023-10-14T12:00:31,42.805,6.029,CST-1368DR,4137,4446,11393,01.261,553
2023-10-14T12:03:33,42.805,6.029,CST-1368DR,4137,4446,11392,01.262,553
2023-10-14T12:06:35,42.805,6.029,CST-1368DR,4137,4446,11391,01.262,552
2023-10-14T12:09:36,42.805,6.029,CST-1368DR,4137,4447,11393,01.261,553
2023-10-14T12:12:38,42.805,6.029,CST-1368DR,4137,4446,11391,01.262,553
2023-10-14T12:15:39,42.805,6.029,CST-1368DR,4137,4447,11393,01.261,553
2023-10-14T12:18:41,42.805,6.029,CST-1368DR,4137,4446,11391,01.262,552
2023-10-14T12:21:43,42.805,6.029,CST-1368DR,4137,4446,11392,01.262,552
2023-10-14T12:24:44,42.805,6.029,CST-1368DR,4137,4446,11392,01.262,553
2023-10-14T12:27:46,42.805,6.029,CST-1368DR,4137,4446,11392,01.262,553
2023-10-14T12:30:49,42.805,6.029,CST-1368DR,4137,4447,11394,01.261,553
2023-10-14T12:33:50,42.805,6.029,CST-1368DR,4136,4446,11395,01.260,552
2023-10-14T12:36:52,42.805,6.029,CST-1368DR,4136,4445,11393,01.261,553
2023-10-14T12:39:53,42.805,6.029,CST-1368DR,4137,4446,11391,01.262,553
2023-10-14T12:42:55,42.805,6.029,CST-1368DR,4136,4446,11395,01.260,553
2023-10-14T12:45:56,42.805,6.029,CST-1368DR,4137,4447,11393,01.261,553
2023-10-14T12:48:58,42.805,6.029,CST-1368DR,4137,4446,11391,01.262,553
2023-10-14T12:52:00,42.805,6.029,CST-1368DR,4136,4447,11396,01.260,553
2023-10-14T12:55:01,42.805,6.029,CST-1368DR,4137,4446,11391,01.262,553
2023-10-14T12:58:03,42.805,6.029,CST-1368DR,4136,4447,11396,01.260,553
2023-10-14T13:01:04,42.805,6.029,CST-1368DR,4137,4447,11393,01.261,553
2023-10-14T13:04:06,42.805,6.029,CST-1368DR,4136,4447,11397,01.260,553
2023-10-14T13:07:08,42.805,6.029,CST-1368DR,4137,4446,11391,01.262,553
2023-10-14T13:10:09,42.805,6.029,CST-1368DR,4137,4447,11393,01.261,553
2023-10-14T13:13:11,42.805,6.029,CST-1368DR,4136,4445,11393,01.261,553
2023-10-14T13:16:12,42.805,6.029,CST-1368DR,4136,4447,11397,01.260,553
2023-10-14T13:19:14,42.805,6.029,CST-1368DR,4136,4445,11393,01.261,553
2023-10-14T13:22:15,42.805,6.029,CST-1368DR,4137,4446,11391,01.262,553
2023-10-14T13:25:17,42.805,6.029,CST-1368DR,4137,4446,11393,01.261,553
2023-10-14T13:28:19,42.805,6.029,CST-1368DR,4136,4444,11389,01.263,553
2023-10-14T13:31:20,42.805,6.029,CST-1368DR,4136,4444,11390,01.262,553
2023-10-14T13:34:22,42.805,6.029,CST-1368DR,4136,4446,11395,01.260,553
2023-10-14T13:37:23,42.805,6.029,CST-1368DR,4136,4446,11393,01.261,553
2023-10-14T13:40:25,42.805,6.029,CST-1368DR,4137,4447,11393,01.261,553
2023-10-14T13:43:26,42.805,6.029,CST-1368DR,4137,4445,11389,01.263,553
2023-10-14T13:46:28,42.805,6.029,CST-1368DR,4137,4445,11390,01.262,553
2023-10-14T13:49:30,42.805,6.029,CST-1368DR,4137,4446,11391,01.262,553
2023-10-14T13:52:31,42.805,6.029,CST-1368DR,4136,4447,11397,01.260,553
2023-10-14T13:55:33,42.805,6.029,CST-1368DR,4137,4445,11390,01.262,553
2023-10-14T13:58:34,42.805,6.029,CST-1368DR,4137,4447,11394,01.261,553
2023-10-14T14:01:36,42.805,6.029,CST-1368DR,4137,4447,11395,01.260,553
2023-10-14T14:04:38,42.805,6.029,CST-1368DR,4136,4446,11395,01.260,553
2023-10-14T14:07:39,42.805,6.029,CST-1368DR,4136,4445,11393,01.261,553
2023-10-14T14:10:41,42.805,6.029,CST-1368DR,4137,4446,11392,01.262,553
2023-10-14T14:13:42,42.805,6.029,CST-1368DR,4136,4446,11395,01.260,553
2023-10-14T14:16:44,42.805,6.029,CST-1368DR,4137,4445,11389,01.263,553
2023-10-14T14:19:45,42.805,6.029,CST-1368DR,4136,4446,11393,01.261,553
2023-10-14T14:22:47,42.805,6.029,CST-1368DR,4136,4446,11395,01.260,552
2023-10-14T14:25:49,42.805,6.029,CST-1368DR,4136,4445,11392,01.262,553
2023-10-14T14:28:50,42.805,6.029,CST-1368DR,4136,4445,11393,01.261,553
2023-10-14T14:31:52,42.805,6.029,CST-1368DR,4137,4445,11389,01.263,553
2023-10-14T14:34:53,42.805,6.029,CST-1368DR,4137,4446,11391,01.262,553
2023-10-14T14:37:55,42.805,6.029,CST-1368DR,4136,4446,11394,01.261,553
2023-10-14T14:40:57,42.805,6.029,CST-1368DR,4137,4447,11393,01.261,553
2023-10-14T14:43:58,42.805,6.029,CST-1368DR,4137,4447,11393,01.261,553
2023-10-14T14:47:00,42.805,6.029,CST-1368DR,4137,4445,11390,01.262,553
2023-10-14T14:50:01,42.805,6.029,CST-1368DR,4137,4445,11389,01.263,553
2023-10-14T14:53:03,42.805,6.029,CST-1368DR,4137,4446,11392,01.262,553
2023-10-14T14:56:04,42.805,6.029,CST-1368DR,4136,4446,11395,01.260,553
2023-10-14T14:59:06,42.805,6.029,CST-1368DR,4137,4446,11391,01.262,552
2023-10-14T15:02:08,42.805,6.029,CST-1368DR,4137,4446,11392,01.262,553
2023-10-14T15:05:09,42.805,6.029,CST-1368DR,4136,4447,11396,01.260,553
2023-10-14T15:08:11,42.805,6.029,CST-1368DR,4137,4447,11394,01.261,553
2023-10-14T15:11:12,42.805,6.029,CST-1368DR,4136,4447,11396,01.260,553
2023-10-14T15:14:14,42.805,6.029,CST-1368DR,4136,4446,11395,01.260,553
2023-10-14T15:17:16,42.805,6.029,CST-1368DR,4136,4447,11396,01.260,553
2023-10-14T15:20:17,42.805,6.029,CST-1368DR,4136,4447,11397,01.260,552
2023-10-14T15:23:19,42.805,6.029,CST-1368DR,4136,4447,11397,01.260,553
2023-10-14T15:26:20,42.805,6.029,CST-1368DR,4136,4448,11399,01.259,553
2023-10-14T15:29:22,42.805,6.029,CST-1368DR,4136,4447,11397,01.260,553
2023-10-14T15:32:23,42.805,6.029,CST-1368DR,4136,4447,11398,01.259,553
2023-10-14T15:35:25,42.805,6.029,CST-1368DR,4136,4448,11399,01.259,553
2023-10-14T15:38:27,42.805,6.029,CST-1368DR,4136,4448,11400,01.259,552
2023-10-14T15:41:28,42.805,6.029,CST-1368DR,4137,4448,11397,01.260,552
2023-10-14T15:44:30,42.805,6.029,CST-1368DR,4136,4447,11397,01.260,552
2023-10-14T15:47:31,42.805,6.029,CST-1368DR,4136,4447,11397,01.260,553
2023-10-14T15:50:33,42.805,6.029,CST-1368DR,4137,4447,11394,01.261,553
2023-10-14T15:53:35,42.805,6.029,CST-1368DR,4136,4447,11398,01.259,552
2023-10-14T15:56:36,42.805,6.029,CST-1368DR,4136,4447,11398,01.259,552
2023-10-14T15:59:38,42.805,6.029,CST-1368DR,4136,4447,11397,01.260,553
2023-10-14T16:02:39,42.805,6.029,CST-1368DR,4136,4448,11399,01.259,553
2023-10-14T16:05:41,42.805,6.029,CST-1368DR,4136,4448,11400,01.259,553
2023-10-14T16:08:42,42.805,6.029,CST-1368DR,4136,4447,11398,01.259,553
2023-10-14T16:11:44,42.805,6.029,CST-1368DR,4136,4446,11395,01.260,552
2023-10-14T16:14:46,42.805,6.029,CST-1368DR,4136,4447,11396,01.260,553
2023-10-14T16:17:47,42.805,6.029,CST-1368DR,4136,4448,11400,01.259,553
2023-10-14T16:20:49,42.805,6.029,CST-1368DR,4136,4448,11400,01.259,553
2023-10-14T16:23:50,42.805,6.029,CST-1368DR,4136,4447,11397,01.260,553
2023-10-14T16:26:52,42.805,6.029,CST-1368DR,4136,4447,11396,01.260,553
2023-10-14T16:29:53,42.805,6.029,CST-1368DR,4136,4452,11409,01.256,553
2023-10-14T16:32:55,42.805,6.029,CST-1368DR,4136,4444,11390,01.262,553
2023-10-14T16:35:57,42.805,6.029,CST-1368DR,4136,4446,11393,01.261,553